Simultaneous Nadir Overpasses (SNOs) Predictions

Prediction of SNOs between NOAA-19 and NPP Satellite Orbit:

Table of predicted SNOs for the next 14.0 days since TLE Epoch: 4/22/2016
Index Date (NOAA-19) Time (NOAA-19) Lat,Lon (NOAA-19) SZA (NOAA-19 ) Date (NPP) Time (NPP) Lat,Lon (NPP) SZA (NPP ) Distance(km) Time Diff (sec)
1 04/27/2016 11:28:22 -81.00, 134.58 109.41 04/27/2016 11:29:38 -81.01, 134.43 109.42 2.77 76
2 04/27/2016 12:19:17 81.01, -57.98 70.57 04/27/2016 12:20:22 81.00, -57.89 70.51 1.87 65
3 04/27/2016 13:10:24 -81.00, 109.12 109.44 04/27/2016 13:11:08 -81.01, 109.03 109.44 1.95 44
4 04/27/2016 14:01:19 81.01, -83.44 70.54 04/27/2016 14:01:52 81.00, -83.29 70.50 2.74 33
5 04/27/2016 14:52:25 -81.01, 84.04 109.51 04/27/2016 14:52:37 -81.00, 83.99 109.51 1.12 12
6 04/27/2016 15:43:21 81.01,-108.91 70.51 04/27/2016 15:43:23 81.02,-109.07 70.54 2.99 2
7 04/27/2016 16:34:27 -81.01, 58.57 109.54 04/27/2016 16:34:07 -81.00, 58.58 109.53 0.63 20
8 04/27/2016 17:25:22 81.01,-133.99 70.44 04/27/2016 17:24:52 81.00,-134.11 70.46 2.11 30
9 04/27/2016 18:16:29 -81.01, 33.11 109.57 04/27/2016 18:15:37 -81.00, 33.18 109.55 1.21 52




NCC Satellite Simultaneous Nadir Overpasses (SNOs) Prediction Service
